| time (UTC) | temp F | wind direction | speed MPH | gust MPH | rain 1hr in | rain 24hr in | rain mn in | humidity % | barometer mb |
| 20260506001556 | 49 | 0.0 | 0.0 | 0.00 | 0.00 | 0.00 | 76 | 1051.2 | |
| 20260506000544 | 49 | 0.0 | 0.0 | 0.00 | 0.00 | 0.00 | 76 | 1051.2 | |
| 20260505235030 | 49 | 0.0 | 2.0 | 0.00 | 0.00 | 0.00 | 75 | 1051.2 | |
| 20260505234035 | 49 | 335 | 0.0 | 5.0 | 0.00 | 0.00 | 0.00 | 75 | 1051.2 |
| 20260505233048 | 49 | 348 | 0.0 | 5.0 | 0.00 | 0.00 | 0.00 | 74 | 1051.3 |
| 20260505232143 | 49 | 0.0 | 0.0 | 0.00 | 0.00 | 0.00 | 74 | 1051.2 | |
| 20260505231031 | 49 | 268 | 0.0 | 2.0 | 0.00 | 0.00 | 0.00 | 74 | 1051.3 |
| 20260505230147 | 50 | 314 | 0.0 | 5.0 | 0.00 | 0.00 | 0.00 | 74 | 1051.2 |
| 20260505225030 | 50 | 305 | 0.0 | 2.0 | 0.00 | 0.00 | 0.00 | 75 | 1051.4 |
| 20260505224036 | 50 | 328 | 1.0 | 8.0 | 0.00 | 0.00 | 0.00 | 76 | 1051.2 |
| 20260505223117 | 50 | 347 | 0.0 | 2.0 | 0.00 | 0.00 | 0.00 | 77 | 1051.2 |
| 20260505222147 | 50 | 0.0 | 0.0 | 0.00 | 0.00 | 0.00 | 77 | 1051.2 | |
| 20260505221124 | 50 | 0.0 | 0.0 | 0.00 | 0.00 | 0.00 | 77 | 1051.2 | |
| 20260505220050 | 50 | 0.0 | 0.0 | 0.00 | 0.00 | 0.00 | 77 | 1051.2 | |
| 20260505215100 | 50 | 0.0 | 0.0 | 0.00 | 0.00 | 0.00 | 77 | 1051.2 | |
| 20260505214047 | 50 | 0.0 | 0.0 | 0.00 | 0.00 | 0.00 | 77 | 1051.2 | |
| 20260505213057 | 50 | 0.0 | 0.0 | 0.00 | 0.00 | 0.00 | 77 | 1051.2 | |
| 20260505212050 | 50 | 0.0 | 0.0 | 0.00 | 0.00 | 0.00 | 75 | 1051.2 | |
| 20260505211025 | 51 | 0.0 | 0.0 | 0.00 | 0.00 | 0.00 | 75 | 1051.2 | |
| 20260505210025 | 51 | 0.0 | 0.0 | 0.00 | 0.00 | 0.00 | 74 | 1051.2 | |
| 20260505205247 | 51 | 0.0 | 0.0 | 0.00 | 0.00 | 0.00 | 74 | 1051.1 | |
| 20260505204120 | 51 | 0.0 | 0.0 | 0.00 | 0.00 | 0.00 | 73 | 1051.2 | |
| 20260505203026 | 51 | 331 | 0.0 | 5.0 | 0.00 | 0.00 | 0.00 | 73 | 1051.1 |
| 20260505202042 | 52 | 0.0 | 0.0 | 0.00 | 0.00 | 0.00 | 71 | 1050.9 | |
| 20260505201037 | 52 | 0.0 | 0.0 | 0.00 | 0.00 | 0.00 | 70 | 1050.7 | |
| 20260505200051 | 52 | 305 | 0.0 | 2.0 | 0.00 | 0.00 | 0.00 | 70 | 1050.7 |
| 20260505195023 | 53 | 22 | 0.0 | 2.0 | 0.00 | 0.00 | 0.00 | 69 | 1050.5 |
| 20260505194051 | 53 | 0.0 | 2.0 | 0.00 | 0.00 | 0.00 | 69 | 1050.5 | |
| 20260505193053 | 54 | 0.0 | 0.0 | 0.00 | 0.00 | 0.00 | 67 | 1050.3 | |
| 20260505192213 | 54 | 0.0 | 0.0 | 0.00 | 0.00 | 0.00 | 66 | 1050.2 | |
| 20260505191051 | 55 | 0.0 | 2.0 | 0.00 | 0.00 | 0.00 | 66 | 1050.0 | |
| 20260505190207 | 55 | 0.0 | 2.0 | 0.00 | 0.00 | 0.00 | 65 | 1049.8 | |
| 20260505185246 | 55 | 323 | 0.0 | 5.0 | 0.00 | 0.00 | 0.00 | 64 | 1049.8 |
| 20260505184030 | 56 | 0.0 | 0.0 | 0.00 | 0.00 | 0.00 | 63 | 1049.8 | |
| 20260505183041 | 56 | 0.0 | 2.0 | 0.00 | 0.00 | 0.00 | 63 | 1049.5 | |
| 20260505182027 | 56 | 0.0 | 2.0 | 0.00 | 0.00 | 0.00 | 62 | 1049.5 | |
| 20260505181027 | 56 | 0.0 | 0.0 | 0.00 | 0.00 | 0.00 | 62 | 1049.5 | |
| 20260505180038 | 56 | 263 | 0.0 | 2.0 | 0.00 | 0.00 | 0.00 | 62 | 1049.6 |
| 20260505175523 | 56 | 344 | 2.0 | 10.0 | 0.00 | 0.00 | 0.00 | 62 | 1049.5 |
| 20260505174035 | 57 | 328 | 3.0 | 10.0 | 0.00 | 0.00 | 0.00 | 62 | 1049.3 |
| 20260505173101 | 57 | 6 | 1.0 | 8.0 | 0.00 | 0.00 | 0.00 | 63 | 1049.7 |
| 20260505172052 | 57 | 321 | 2.0 | 5.0 | 0.00 | 0.00 | 0.00 | 62 | 1049.5 |
| 20260505171046 | 57 | 289 | 1.0 | 5.0 | 0.00 | 0.00 | 0.00 | 63 | 1049.5 |
| 20260505170054 | 58 | 359 | 1.0 | 8.0 | 0.00 | 0.00 | 0.00 | 62 | 1049.5 |
| 20260505165215 | 58 | 307 | 2.0 | 10.0 | 0.00 | 0.00 | 0.00 | 62 | 1049.5 |
| 20260505164047 | 58 | 286 | 4.0 | 10.0 | 0.00 | 0.00 | 0.00 | 62 | 1049.2 |
| 20260505163035 | 59 | 357 | 0.0 | 5.0 | 0.00 | 0.00 | 0.00 | 62 | 1049.3 |
| 20260505162023 | 59 | 334 | 1.0 | 8.0 | 0.00 | 0.00 | 0.00 | 63 | 1049.2 |
| 20260505161137 | 60 | 335 | 3.0 | 10.0 | 0.00 | 0.00 | 0.00 | 63 | 1049.3 |
| 20260505160211 | 61 | 347 | 1.0 | 2.0 | 0.00 | 0.00 | 0.00 | 62 | 1049.2 |
| 20260505153034 | 62 | 318 | 2.0 | 8.0 | 0.00 | 0.00 | 0.00 | 51 | 1049.0 |
| 20260505152040 | 62 | 321 | 0.0 | 5.0 | 0.00 | 0.00 | 0.00 | 51 | 1049.2 |
| 20260505151040 | 62 | 310 | 1.0 | 8.0 | 0.00 | 0.00 | 0.00 | 53 | 1049.2 |
| 20260505140116 | 61 | 269 | 0.0 | 2.0 | 0.00 | 0.00 | 0.00 | 57 | 1049.6 |
| 20260505125029 | 62 | 33 | 1.0 | 5.0 | 0.00 | 0.00 | 0.00 | 50 | 1049.5 |
| 20260505124034 | 61 | 0.0 | 0.0 | 0.00 | 0.00 | 0.00 | 49 | 1049.5 | |
| 20260505123036 | 62 | 0.0 | 0.0 | 0.00 | 0.00 | 0.00 | 50 | 1049.6 | |
| 20260505122142 | 62 | 0.0 | 0.0 | 0.00 | 0.00 | 0.00 | 49 | 1049.9 | |
| 20260505121143 | 61 | 0.0 | 0.0 | 0.00 | 0.00 | 0.00 | 50 | 1049.9 | |
| 20260505120056 | 61 | 0.0 | 0.0 | 0.00 | 0.00 | 0.00 | 54 | 1049.9 | |
| 20260505115121 | 61 | 0.0 | 0.0 | 0.00 | 0.00 | 0.00 | 52 | 1049.9 | |
| 20260505114250 | 62 | 0.0 | 0.0 | 0.00 | 0.00 | 0.00 | 54 | 1050.0 | |
| 20260505113103 | 62 | 302 | 0.0 | 5.0 | 0.00 | 0.00 | 0.00 | 52 | 1049.9 |
| 20260505112246 | 62 | 0.0 | 0.0 | 0.00 | 0.00 | 0.00 | 51 | 1050.1 | |
| 20260505111027 | 61 | 0.0 | 0.0 | 0.00 | 0.00 | 0.00 | 51 | 1050.2 | |
| 20260505110107 | 60 | 0.0 | 0.0 | 0.00 | 0.00 | 0.00 | 54 | 1050.3 | |
| 20260505102026 | 58 | 90 | 0.0 | 2.0 | 0.00 | 0.00 | 0.00 | 57 | 1050.5 |
| 20260505101204 | 57 | 0.0 | 0.0 | 0.00 | 0.00 | 0.00 | 56 | 1050.5 | |
| 20260505100039 | 57 | 0.0 | 0.0 | 0.00 | 0.00 | 0.00 | 58 | 1050.5 | |
| 20260505095102 | 57 | 0.0 | 0.0 | 0.00 | 0.00 | 0.00 | 61 | 1050.8 | |
| 20260505094025 | 56 | 0.0 | 0.0 | 0.00 | 0.00 | 0.00 | 66 | 1050.9 | |
| 20260505093025 | 56 | 0.0 | 0.0 | 0.00 | 0.00 | 0.00 | 66 | 1050.9 | |
| 20260505092037 | 55 | 0.0 | 0.0 | 0.00 | 0.00 | 0.00 | 67 | 1050.9 | |
| 20260505091048 | 55 | 0.0 | 0.0 | 0.00 | 0.00 | 0.00 | 72 | 1050.9 | |
| 20260505090048 | 55 | 301 | 0.0 | 2.0 | 0.00 | 0.00 | 0.00 | 72 | 1051.1 |
| 20260505085125 | 55 | 314 | 0.0 | 2.0 | 0.00 | 0.00 | 0.00 | 71 | 1050.9 |
| 20260505084056 | 54 | 0.0 | 0.0 | 0.00 | 0.00 | 0.00 | 73 | 1050.9 | |
| 20260505083024 | 54 | 0.0 | 0.0 | 0.00 | 0.00 | 0.00 | 74 | 1051.1 | |
| 20260505082050 | 54 | 0.0 | 0.0 | 0.00 | 0.00 | 0.00 | 75 | 1050.9 | |
| 20260505081137 | 53 | 0.0 | 0.0 | 0.00 | 0.00 | 0.00 | 75 | 1051.2 | |
| 20260505080107 | 53 | 0.0 | 0.0 | 0.00 | 0.00 | 0.00 | 76 | 1051.2 | |
| 20260505075028 | 52 | 0.0 | 0.0 | 0.00 | 0.00 | 0.00 | 76 | 1051.2 | |
| 20260505074157 | 52 | 0.0 | 0.0 | 0.00 | 0.00 | 0.00 | 79 | 1051.2 | |
| 20260505073038 | 51 | 0.0 | 0.0 | 0.00 | 0.00 | 0.00 | 81 | 1051.2 | |
| 20260505072052 | 51 | 0.0 | 0.0 | 0.00 | 0.00 | 0.00 | 82 | 1051.2 | |
| 20260505071202 | 51 | 0.0 | 0.0 | 0.00 | 0.00 | 0.00 | 83 | 1051.3 | |
| 20260505070058 | 50 | 0.0 | 0.0 | 0.00 | 0.00 | 0.00 | 83 | 1051.2 | |
| 20260505065044 | 50 | 0.0 | 0.0 | 0.00 | 0.00 | 0.00 | 84 | 1051.5 | |
| 20260505064038 | 50 | 0.0 | 0.0 | 0.00 | 0.00 | 0.00 | 85 | 1051.5 | |
| 20260505063051 | 49 | 0.0 | 0.0 | 0.00 | 0.00 | 0.00 | 86 | 1051.4 | |
| 20260505062027 | 49 | 0.0 | 0.0 | 0.00 | 0.00 | 0.00 | 86 | 1051.5 | |
| 20260505061027 | 49 | 0.0 | 0.0 | 0.00 | 0.00 | 0.00 | 87 | 1051.5 | |
| 20260505060201 | 48 | 0.0 | 0.0 | 0.00 | 0.00 | 0.00 | 88 | 1051.4 | |
| 20260505055035 | 48 | 0.0 | 0.0 | 0.00 | 0.00 | 0.00 | 88 | 1051.4 | |
| 20260505054039 | 48 | 0.0 | 0.0 | 0.00 | 0.00 | 0.00 | 88 | 1051.5 | |
| 20260505053037 | 48 | 0.0 | 0.0 | 0.00 | 0.00 | 0.00 | 88 | 1051.4 | |
| 20260505052040 | 48 | 0.0 | 0.0 | 0.00 | 0.00 | 0.00 | 88 | 1051.3 | |
| 20260505051135 | 48 | 0.0 | 0.0 | 0.00 | 0.00 | 0.00 | 89 | 1051.5 | |
| 20260505041135 | 48 | 0.0 | 0.0 | 0.00 | 0.00 | 0.00 | 91 | 1051.4 | |
| 20260505040040 | 48 | 0.0 | 0.0 | 0.00 | 0.00 | 0.00 | 91 | 1051.4 | |
| 20260505035030 | 48 | 0.0 | 0.0 | 0.00 | 0.00 | 0.00 | 91 | 1051.5 | |
| 20260505034147 | 48 | 0.0 | 0.0 | 0.00 | 0.00 | 0.00 | 91 | 1051.4 | |
| 20260505033154 | 48 | 0.0 | 0.0 | 0.00 | 0.00 | 0.00 | 91 | 1051.3 | |
| 20260505032200 | 48 | 0.0 | 0.0 | 0.00 | 0.00 | 0.00 | 91 | 1051.5 | |
| 20260505031143 | 48 | 0.0 | 0.0 | 0.00 | 0.00 | 0.00 | 91 | 1051.5 | |
| 20260505030257 | 48 | 0.0 | 0.0 | 0.00 | 0.00 | 0.00 | 91 | 1051.3 | |
| 20260505025059 | 48 | 0.0 | 0.0 | 0.00 | 0.00 | 0.00 | 90 | 1051.3 | |
| 20260505024036 | 48 | 0.0 | 0.0 | 0.00 | 0.00 | 0.00 | 90 | 1051.5 | |
| 20260505023055 | 48 | 0.0 | 0.0 | 0.00 | 0.00 | 0.00 | 90 | 1051.5 | |
| 20260505022027 | 48 | 0.0 | 0.0 | 0.00 | 0.00 | 0.00 | 89 | 1051.6 | |
| 20260505021049 | 49 | 0.0 | 0.0 | 0.00 | 0.00 | 0.00 | 89 | 1051.6 | |
| 20260505020038 | 49 | 0.0 | 0.0 | 0.00 | 0.00 | 0.00 | 88 | 1051.5 | |
| 20260505015049 | 49 | 0.0 | 0.0 | 0.00 | 0.00 | 0.00 | 88 | 1051.5 | |
| 20260505014034 | 50 | 0.0 | 0.0 | 0.00 | 0.00 | 0.00 | 87 | 1051.7 | |
| 20260505013041 | 50 | 0.0 | 0.0 | 0.00 | 0.00 | 0.00 | 87 | 1051.7 | |
| 20260505012108 | 50 | 0.0 | 0.0 | 0.00 | 0.00 | 0.00 | 87 | 1051.9 | |
| 20260505011134 | 50 | 0.0 | 0.0 | 0.00 | 0.00 | 0.00 | 86 | 1052.1 | |
| 20260505010259 | 50 | 0.0 | 0.0 | 0.00 | 0.00 | 0.00 | 86 | 1052.0 | |
| 20260505005143 | 50 | 0.0 | 0.0 | 0.00 | 0.00 | 0.00 | 86 | 1052.0 | |
| 20260505004108 | 50 | 0.0 | 0.0 | 0.00 | 0.00 | 0.00 | 86 | 1052.2 | |
| 20260505003058 | 50 | 0.0 | 0.0 | 0.00 | 0.00 | 0.00 | 86 | 1052.2 |